User: anonymous   Login
Location: Dürabuch
(48.2640°N, 11.2185°E)
Time: 16:32:28
(UTC+00:00)
Language:

DELTA 2 R/B (1) - Orbit

View from above orbital plane
View from above orbital plane
View from above satellite
View from above satellite

Ground track
Ground track

The orbit data is extracted from the following two-line orbital elements,

1 27665U 03005C   24196.49143153  .00000149  00000-0  91532-4 0  9994
2 27665  39.5752 268.2340 0007934 153.9459 221.3533 14.29041433120590
Epoch (UTC): 14 July 2024 11:47:39
Eccentricity: 0.0007934
inclination: 39.5752°
perigee height: 789 km
apogee height: 800 km
right ascension of ascending node: 268.2340°
argument of perigee: 153.9459°
revolutions per day: 14.29041433
mean anomaly at epoch: 221.3533°
orbit number at epoch: 12059

The dashed part of the orbit path shows where the satellite is in the earth's shadow,  

DLR